Flag for U.S.A. Weather past 2 weeks in Scottsdale, Arizona, U.S.A.

Now
74 °F

Clear.


Feels Like: 74 °F
Forecast: 55 / 82 °F
Wind: No wind

Location: Scottsdale Airport

Current Time: Apr 17, 2015 at 8:32:30 PM

Latest Report: Apr 17, 2015 at 7:53 PM


Visibility: 10 mi

Pressure: 29.88 "Hg

Humidity: 13%

Dew point: 20 °F

Location of ScottsdaleLocation

Historic Weather in Scottsdale — Graph

°F

Scottsdale temperature yesterday

Maximum temperature yesterday: 72 °F (at 3:53 PM)
Minimum temperature yesterday: 52 °F (at 5:53 AM)
Average temperature yesterday: 63 °F

Past Weeks' High & Low Weather Summary

 TemperatureHumidityPressure
High89 °F (Apr 14, 2:53 PM)52% (Apr 13, 5:53 AM)30.04 "Hg (Apr 13, 5:53 AM)
Low51 °F (Apr 9, 5:53 AM)2% (Apr 15, 11:53 AM)29.67 "Hg (Apr 5, 6:53 PM)
Average71 °F18%29.86 "Hg
* Reported Apr 2 6:53 PM — Apr 17 6:53 PM, Scottsdale, Weather by CustomWeather, © 2015

Note: Actual official high and low records may vary slightly from our data, if they occured in-between our weather recording intervals... More about our weather records

Advertising

Scottsdale weather history for previous 24 hours

 ConditionsComfort  
Time TempWeatherWind HumidityBarometerVisibility
6:53 PM
Fri, Apr 17
77 °FSunny.No wind11%29.88 "Hg10 mi
5:53 PM76 °FSunny.6 mph12%29.88 "Hg10 mi
4:53 PM77 °FSunny.5 mph12%29.88 "Hg10 mi
3:53 PM77 °FSunny.12 mph12%29.90 "Hg10 mi
2:53 PM77 °FSunny.5 mph12%29.91 "Hg10 mi
1:53 PM75 °FSunny.3 mph10%29.95 "Hg10 mi
12:53 PM74 °FSunny.7 mph10%29.97 "Hg10 mi
11:53 AM72 °FSunny.9 mph11%29.99 "Hg10 mi
10:53 AM71 °FSunny.7 mph12%30.00 "Hg10 mi
9:53 AM68 °FSunny.5 mph14%30.01 "Hg10 mi
8:53 AM66 °FSunny.8 mph19%30.02 "Hg10 mi
7:53 AM63 °FSunny.12 mph24%30.01 "Hg10 mi
6:53 AM58 °FSunny.No wind36%30.01 "Hg10 mi
5:53 AM52 °FClear.No wind34%29.99 "Hg10 mi
4:53 AM55 °FClear.No wind29%29.98 "Hg10 mi
3:53 AM54 °FClear.3 mph24%29.99 "Hg10 mi
2:53 AM57 °FClear.No wind26%29.98 "Hg10 mi
1:53 AM56 °FClear.No wind30%29.98 "Hg10 mi
12:53 AM58 °FClear.3 mph27%29.98 "Hg10 mi
11:53 PM
Thu, Apr 16
59 °FClear.No wind25%30.00 "Hg10 mi
10:53 PM62 °FClear.No wind19%29.99 "Hg10 mi
9:53 PM63 °FClear.No wind17%29.98 "Hg10 mi
8:53 PM66 °FClear.No wind13%29.97 "Hg10 mi
Weather by CustomWeather, © 2015

See weather overviewHow to use our weather pages